Location: Aciu?a
(46.2833°N, 22.4500°E)
Time: 13:28:53
(UTC+00:00)

Cosmos 2322 Rocket - Pass Details

Date: 25 October 2021
Orbit: 832 x 852 km, 71.0° (Epoch: 07 December)

Event Time Altitude Azimuth Distance (km) Brightness Sun altitude
Rises 16:05:32 0° 183° (S) 3,361 5.5 -7.4°
Reaches altitude 10° 16:08:03 10° 177° (S) 2,432 4.7 -7.8°
Maximum altitude 16:13:16 43° 107° (ESE) 1,164 2.6 -8.7°
Drops below altitude 10° 16:18:32 10° 38° (NE) 2,453 4.2 -9.6°
Sets 16:21:05 0° 32° (NNE) 3,394 5.0 -10.1°
